Decorah, IA

6:49 PM CST on November 13, 2019 (GMT -0600)
Decorah Municipal

Weather History for KDEH - October, 2019

Change the Weather History Date:

Tuesday, October 22, 2019

  Actual Average Record
Temperature  
Mean Temperature 44 °F -  
Max Temperature 48 °F 60 °F 80 °F (1992)
Min Temperature 39 °F 36 °F 19 °F (1976)
Degree Days  
Heating Degree Days 22    
Moisture  
Dew Point 37 °F    
Average Humidity 79    
Maximum Humidity 100    
Minimum Humidity 50    
Precipitation  
Precipitation 0.02 in - - ()
Sea Level Pressure  
Sea Level Pressure 29.51 in    
Wind  
Wind Speed 11 mph ()    
Max Wind Speed 17 mph    
Max Gust Speed 32 mph    
Visibility 9.5 miles    
Events Rain    
Averages and records for this station are not official NWS values.
T = Trace of Precipitation, MM = Missing Value Source: Averaged Metar Reports

Daily Weather History Graph

Daily Weather History Graph

Search for Another Location

Airport or City:

Astronomy

Oct. 22, 2019 Rise Set
Actual Time 7:29 AM CDT 6:13 PM CDT
Civil Twilight 7:00 AM CDT 6:42 PM CDT
Nautical Twilight 6:26 AM CDT 7:15 PM CDT
Astronomical Twilight 5:53 AM CDT 7:48 PM CDT
Moon 12:25 AM CDT (10/22) 3:35 PM CDT (10/22)
Length of Visible Light 11h 42m
Length of Day
10h 44m
Last Quarter, 37% of the Moon is Illuminated
Oct 22
Last Quarter
Oct 27
New
Nov 4
First Quarter
Nov 12
Full
Nov 19
Last Quarter

Hourly Weather History & Observations

Time (CDT) Temp. Windchill Dew Point Humidity Pressure Visibility Wind Dir Wind Speed Gust Speed Precip Events Conditions
12:15 AM 42.8 °F 35.8 °F 41.0 °F 93% 29.21 in 9.0 mi SW 13.8 mph 27.6 mph N/A   Overcast
12:35 AM 42.8 °F 37.0 °F 41.0 °F 93% 29.21 in 9.0 mi SW 10.4 mph 23.0 mph N/A   Overcast
12:55 AM 42.8 °F 37.0 °F 41.0 °F 93% 29.20 in 9.0 mi SW 10.4 mph 21.9 mph 0.01 in   Overcast
1:15 AM 41.0 °F 33.1 °F 41.0 °F 100% 29.20 in 10.0 mi SW 15.0 mph 27.6 mph N/A   Overcast
1:35 AM 41.0 °F 35.2 °F 41.0 °F 100% 29.20 in 7.0 mi SW 9.2 mph 24.2 mph N/A   Overcast
2:15 AM 41.0 °F 34.3 °F 41.0 °F 100% 29.22 in 2.5 mi WSW 11.5 mph 25.3 mph N/A Rain Light Rain
2:35 AM 41.0 °F 34.7 °F 41.0 °F 100% 29.23 in 5.0 mi WSW 10.4 mph 20.7 mph N/A Rain Light Rain
2:55 AM 41.0 °F 33.1 °F 41.0 °F 100% 29.24 in 6.0 mi WSW 15.0 mph 25.3 mph 0.01 in Rain Light Rain
3:15 AM 41.0 °F 34.3 °F 41.0 °F 100% 29.25 in 6.0 mi West 11.5 mph 24.2 mph N/A   Overcast
3:35 AM 41.0 °F 34.7 °F 41.0 °F 100% 29.26 in 9.0 mi West 10.4 mph 20.7 mph N/A   Overcast
3:55 AM 41.0 °F 35.2 °F 41.0 °F 100% 29.27 in 9.0 mi West 9.2 mph 23.0 mph N/A   Overcast
4:15 AM 41.0 °F 33.5 °F 41.0 °F 100% 29.28 in 10.0 mi West 13.8 mph 24.2 mph N/A   Overcast
4:35 AM 42.8 °F 36.6 °F 41.0 °F 93% 29.30 in 10.0 mi WNW 11.5 mph 29.9 mph N/A   Overcast
4:55 AM 42.8 °F 36.2 °F 39.2 °F 87% 29.31 in 10.0 mi West 12.7 mph 24.2 mph N/A   Overcast
5:15 AM 42.8 °F 34.8 °F 39.2 °F 87% 29.33 in 10.0 mi WNW 17.3 mph 28.8 mph N/A   Overcast
5:35 AM 42.8 °F 35.8 °F 39.2 °F 87% 29.34 in 10.0 mi WNW 13.8 mph 29.9 mph N/A   Overcast
5:55 AM 42.8 °F 36.6 °F 41.0 °F 93% 29.35 in 9.0 mi WNW 11.5 mph 21.9 mph N/A   Overcast
6:15 AM 42.8 °F 35.8 °F 41.0 °F 93% 29.36 in 10.0 mi WNW 13.8 mph 25.3 mph N/A   Overcast
6:35 AM 42.8 °F 35.4 °F 39.2 °F 87% 29.38 in 10.0 mi West 15.0 mph 27.6 mph N/A   Overcast
6:55 AM 42.8 °F 35.1 °F 39.2 °F 87% 29.39 in 10.0 mi WNW 16.1 mph 25.3 mph N/A   Overcast
7:15 AM 42.8 °F 36.2 °F 39.2 °F 87% 29.40 in 10.0 mi WNW 12.7 mph 25.3 mph N/A   Overcast
7:35 AM 42.8 °F 36.6 °F 39.2 °F 87% 29.41 in 10.0 mi West 11.5 mph 21.9 mph N/A   Overcast
7:55 AM 42.8 °F 36.6 °F 39.2 °F 87% 29.42 in 10.0 mi West 11.5 mph 24.2 mph N/A   Overcast
8:15 AM 42.8 °F 37.0 °F 39.2 °F 87% 29.44 in 10.0 mi West 10.4 mph 25.3 mph N/A   Overcast
8:35 AM 42.8 °F 36.2 °F 39.2 °F 87% 29.45 in 10.0 mi WNW 12.7 mph 23.0 mph N/A   Overcast
8:55 AM 42.8 °F 36.6 °F 39.2 °F 87% 29.46 in 10.0 mi West 11.5 mph 24.2 mph N/A   Overcast
9:15 AM 41.0 °F 32.8 °F 39.2 °F 93% 29.47 in 10.0 mi West 16.1 mph 32.2 mph N/A   Overcast
9:35 AM 41.0 °F 33.9 °F 39.2 °F 93% 29.48 in 4.0 mi West 12.7 mph 19.6 mph N/A   Overcast
9:55 AM 41.0 °F 34.7 °F 39.2 °F 93% 29.49 in 9.0 mi West 10.4 mph 20.7 mph N/A   Overcast
10:15 AM 42.8 °F 35.8 °F 39.2 °F 87% 29.50 in 10.0 mi West 13.8 mph 25.3 mph N/A   Overcast
10:35 AM 42.8 °F 36.2 °F 39.2 °F 87% 29.51 in 10.0 mi West 12.7 mph 24.2 mph N/A   Overcast
10:55 AM 42.8 °F 35.4 °F 39.2 °F 87% 29.52 in 10.0 mi West 15.0 mph 24.2 mph N/A   Unknown
11:15 AM 42.8 °F 36.6 °F 37.4 °F 81% 29.52 in 10.0 mi West 11.5 mph 25.3 mph N/A   Unknown
11:35 AM 42.8 °F 35.4 °F 37.4 °F 81% 29.53 in 10.0 mi West 15.0 mph 28.8 mph N/A   Unknown
11:55 AM 41.0 °F 34.7 °F 37.4 °F 87% 29.54 in 10.0 mi West 10.4 mph 26.5 mph N/A   Overcast
12:15 PM 42.8 °F 37.5 °F 37.4 °F 81% 29.55 in 10.0 mi West 9.2 mph 26.5 mph N/A   Unknown
12:35 PM 42.8 °F 35.1 °F 37.4 °F 81% 29.55 in 10.0 mi WNW 16.1 mph 25.3 mph N/A   Unknown
12:55 PM 44.6 °F 39.7 °F 37.4 °F 76% 29.55 in 10.0 mi West 9.2 mph 19.6 mph N/A   Unknown
1:15 PM 44.6 °F 38.4 °F 37.4 °F 76% 29.56 in 10.0 mi West 12.7 mph 24.2 mph N/A   Unknown
1:35 PM 44.6 °F 37.4 °F 37.4 °F 76% 29.57 in 10.0 mi West 16.1 mph 29.9 mph N/A   Unknown
1:55 PM 42.8 °F 35.8 °F 37.4 °F 81% 29.58 in 10.0 mi West 13.8 mph 29.9 mph N/A   Unknown
2:15 PM 44.6 °F 37.4 °F 35.6 °F 71% 29.58 in 10.0 mi West 16.1 mph 28.8 mph N/A   Unknown
2:35 PM 44.6 °F 38.1 °F 35.6 °F 71% 29.59 in 10.0 mi West 13.8 mph 31.1 mph N/A   Unknown
2:55 PM 44.6 °F 39.2 °F 35.6 °F 71% 29.59 in 10.0 mi WNW 10.4 mph 27.6 mph N/A   Unknown
3:15 PM 46.4 °F 41.1 °F 35.6 °F 66% 29.60 in 10.0 mi West 11.5 mph 29.9 mph N/A   Unknown
3:35 PM 46.4 °F 39.8 °F 35.6 °F 66% 29.60 in 10.0 mi West 16.1 mph 23.0 mph N/A   Unknown
3:55 PM 48.2 °F - 35.6 °F 62% 29.62 in 10.0 mi West 8.1 mph 26.5 mph N/A   Overcast
4:15 PM 48.2 °F - 35.6 °F 62% 29.62 in 10.0 mi West 12.7 mph 27.6 mph N/A   Overcast
4:35 PM 46.4 °F 40.7 °F 35.6 °F 66% 29.63 in 10.0 mi West 12.7 mph 25.3 mph N/A   Overcast
4:55 PM 46.4 °F 40.4 °F 35.6 °F 66% 29.64 in 10.0 mi West 13.8 mph 28.8 mph N/A   Overcast
5:15 PM 48.2 °F - 35.6 °F 62% 29.65 in 10.0 mi West 9.2 mph 20.7 mph N/A   Overcast
5:35 PM 48.2 °F - 33.8 °F 58% 29.65 in 10.0 mi WNW 11.5 mph 25.3 mph N/A   Overcast
5:55 PM 48.2 °F - 32.0 °F 54% 29.66 in 10.0 mi West 13.8 mph 32.2 mph N/A   Overcast
6:15 PM 48.2 °F - 32.0 °F 54% 29.67 in 10.0 mi Variable 6.9 mph 21.9 mph N/A   Overcast
6:35 PM 48.2 °F - 30.2 °F 50% 29.68 in 10.0 mi West 10.4 mph 25.3 mph N/A   Overcast
6:55 PM 46.4 °F 41.5 °F 30.2 °F 53% 29.68 in 10.0 mi West 10.4 mph 28.8 mph N/A   Overcast
7:15 PM 46.4 °F 40.7 °F 30.2 °F 53% 29.70 in 10.0 mi West 12.7 mph 24.2 mph N/A   Overcast
7:35 PM 44.6 °F 40.7 °F 30.2 °F 57% 29.70 in 10.0 mi Variable 6.9 mph 21.9 mph N/A   Overcast
7:55 PM 44.6 °F 39.7 °F 32.0 °F 61% 29.71 in 10.0 mi West 9.2 mph 19.6 mph N/A   Overcast
8:15 PM 44.6 °F 40.2 °F 32.0 °F 61% 29.72 in 10.0 mi West 8.1 mph 17.3 mph N/A   Overcast
8:35 PM 42.8 °F 37.0 °F 32.0 °F 66% 29.72 in 10.0 mi West 10.4 mph 18.4 mph N/A   Mostly Cloudy
8:55 PM 42.8 °F 38.0 °F 32.0 °F 66% 29.73 in 10.0 mi West 8.1 mph 16.1 mph N/A   Mostly Cloudy
9:15 PM 42.8 °F 36.6 °F 32.0 °F 66% 29.73 in 10.0 mi West 11.5 mph 20.7 mph N/A   Overcast
9:35 PM 42.8 °F 38.0 °F 32.0 °F 66% 29.73 in 10.0 mi West 8.1 mph 17.3 mph N/A   Overcast
10:15 PM 42.8 °F 38.0 °F 32.0 °F 66% 29.74 in 10.0 mi West 8.1 mph 15.0 mph N/A   Overcast
10:35 PM 41.0 °F 35.2 °F 32.0 °F 70% 29.74 in 10.0 mi West 9.2 mph 17.3 mph N/A   Scattered Clouds
10:55 PM 41.0 °F 35.2 °F 32.0 °F 70% 29.74 in 10.0 mi West 9.2 mph 16.1 mph N/A   Clear
11:15 PM 41.0 °F 35.2 °F 32.0 °F 70% 29.74 in 10.0 mi West 9.2 mph 17.3 mph N/A   Clear
11:35 PM 39.2 °F 35.0 °F 32.0 °F 75% 29.74 in 10.0 mi Variable 5.8 mph 15.0 mph N/A   Clear
11:55 PM 39.2 °F 34.2 °F 32.0 °F 75% 29.75 in 10.0 mi Variable 6.9 mph 15.0 mph N/A   Clear